Location: Kergonan
(48.2337°N, 4.5518°W)
Time: 03:22:34
(UTC+00:00)

Daily predictions for brighter satellites

Satellite Brightness Start Highest point End
(mag) Time Altitude Azimuth Time Altitude Azimuth Time Altitude Azimuth
USA 215 4.1 03:59:40 10° ESE 04:03:57 44° E 04:03:57 44° E
CENTAUR R/B 4.2 04:16:24 29° N 04:17:49 30° NNE 04:24:59 10° E
Cosmos 2297 Rocket 3.7 04:23:30 31° ESE 04:23:30 31° ESE 04:26:29 10° SE
Cosmos 2227 Rocket 3.3 04:34:29 40° ESE 04:34:29 40° ESE 04:38:11 10° SE
Cosmos 1656 4.2 04:55:44 48° SE 04:56:35 53° ESE 05:01:54 10° NE
NOSS 3-1 (C) 4.5 05:02:19 33° N 05:02:19 33° N 05:07:20 10° NE
CZ-3 R/B 4.3 04:56:39 21° SW 05:05:04 29° SSW 05:12:28 10° SE
Lacrosse 5 rocket 2.8 05:10:54 36° NE 05:10:54 36° NE 05:13:45 10° NE
Meteor 2-15 Rocket 4.3 05:13:43 27° SSW 05:17:17 83° W 05:23:30 10° N
Meteor 1-24 Rocket 4.0 05:20:04 53° SSW 05:20:04 53° SSW 05:24:37 10° S
Cosmos 2184 Rocket 3.8 05:14:40 18° N 05:19:28 83° W 05:25:43 10° S
Cosmos 1602 Rocket 3.8 05:21:44 65° E 05:21:44 65° E 05:25:49 10° SSE
Cosmos 1953 4.3 05:21:06 10° SSE 05:24:36 29° E 05:28:08 10° NNE
Cosmos 44 Rocket 3.5 05:24:26 56° NNE 05:24:58 61° NE 05:29:40 10° SE
Cosmos 1980 Rocket 4.1 05:20:15 10° SSE 05:25:07 30° ESE 05:29:59 10° NE
Cosmos 2154 Rocket 4.1 05:20:49 10° N 05:27:03 75° E 05:33:14 10° SSE
SKYMED 2 3.8 05:26:16 10° SSE 05:29:51 61° S 05:29:51 61° S
Okean O Rocket 3.4 05:27:29 10° NNE 05:31:33 33° E 05:35:35 10° SSE
FENGYUN 3A 4.2 05:26:26 10° NNE 05:31:47 59° E 05:37:06 10° S
SJ-12 4.3 05:27:54 10° NNE 05:31:58 63° ESE 05:35:59 10° S
Cosmos 1697 Rocket 3.1 05:28:42 10° S 05:34:12 61° ESE 05:39:45 10° NNE
Meteor 1-22 Rocket 4.3 05:32:57 25° SSW 05:36:29 65° WNW 05:42:35 10° N
NOSS 3-1 (A) 4.2 05:37:25 34° NNW 05:37:44 34° NNW 05:43:54 10° NE
NOSS 2-2 (E) 4.4 05:39:28 25° S 05:41:09 41° ESE 05:45:01 10° NE
ATLAS 3B R/B 3.8 05:38:09 19° NNW 05:42:17 37° NNE 05:48:32 10° E
PSLV R/B 4.5 05:38:27 10° NNE 05:41:08 43° NNE 05:41:08 43° NNE
Cosmos 1610 Rocket 4.4 05:38:52 10° NNW 05:45:08 78° W 05:51:26 10° S
Cosmos 1626 Rocket 4.4 05:47:01 34° SSW 05:47:01 34° SSW 05:49:40 10° S
NOSS 3-2 (A) 4.1 05:43:21 25° NW 05:48:10 78° NE 05:56:31 10° SE
Cosmos 1726 4.3 05:45:34 10° SSE 05:48:42 27° E 05:51:50 10° NNE
USA 215 3.6 05:43:15 10° SSE 05:49:26 45° SW 05:51:19 36° W
Cosmos 2082 3.7 05:49:00 41° NW 05:50:47 60° WSW 05:56:23 10° S
CZ-4B DEB 4.3 05:45:37 10° NNE 05:51:13 78° ESE 05:56:45 10° SSW
Cosmos 2074 Rocket 4.1 05:47:31 16° NNW 05:52:11 47° W 05:58:05 10° SSW
Cosmos 783 Rocket 4.4 05:50:45 29° SW 05:53:24 64° WNW 05:58:36 10° NNE
STARLINK-60 4.2 05:54:11 33° NNE 05:54:11 33° NNE 05:56:54 10° ENE
CZ-2C R/B 4.3 05:49:49 10° N 05:51:00 16° NNW 05:51:00 16° NNW
FALCON 9 DEB 4.1 05:54:43 37° N 05:54:43 37° N 05:57:41 10° ENE
USA 116 4.0 05:52:57 10° S 05:57:54 79° WSW 06:01:02 20° NNW
Helios 1A Rocket 4.0 05:54:37 10° NNE 05:58:36 45° E 06:02:34 10° S
Cosmos 1470 2.7 05:54:48 10° SSW 05:58:44 64° WNW 06:02:43 10° N
NOSS 8 (F) 4.2 05:59:17 74° NE 05:59:17 74° NE 06:02:09 10° NE
Cosmos 1295 Rocket 4.4 05:53:52 10° N 06:00:08 84° W 06:06:17 10° S
STARLINK-29 3.9 06:03:50 38° N 06:03:53 38° N 06:07:12 10° ENE
STARLINK-52 3.9 06:03:57 38° N 06:03:59 38° N 06:07:19 10° ENE
Cosmos 2344 3.5 05:56:47 10° SW 06:04:18 88° NW 06:12:40 10° NE
Cosmos 2297 Rocket 3.2 06:05:22 27° WSW 06:05:22 27° WSW 06:09:20 10° SSW
Cosmos 1825 Rocket 3.7 06:00:40 10° N 06:05:00 74° ENE 06:09:20 10° SSE
APEX 4.3 06:06:27 29° NNW 06:06:27 29° NNW 06:09:22 10° NNE
BREEZE M DEB (TANK) 4.2 06:04:25 18° SSW 06:05:55 31° SE 06:10:11 10° ENE
Cosmos 962 Rocket 4.4 06:01:10 10° N 06:07:27 87° W 06:13:47 10° S
CENTAUR R/B 3.5 06:03:35 16° NW 06:10:03 65° NE 06:18:40 10° SE
ALOS 2.2 06:07:57 10° N 06:12:33 58° WNW 06:17:07 10° SSW
Cosmos 2360 4.3 06:07:07 10° SSW 06:12:50 81° ESE 06:18:35 10° NNE
ATLAS 2AS CENTAUR R/B 4.2 06:07:32 10° S 06:14:58 45° ESE 06:22:28 10° NE
Cosmos 773 Rocket 3.9 06:10:50 10° SSW 06:16:06 69° WNW 06:21:25 10° NNE
Cosmos 2227 Rocket 3.2 06:16:21 25° WSW 06:16:21 25° WSW 06:20:41 10° SSW
COSMO-SKYMED 1 3.5 06:15:08 10° SSW 06:18:31 28° WSW 06:18:31 28° WSW
STARLINK-46 3.6 06:20:17 26° SSE 06:20:17 26° SSE 06:21:31 10° SE
COSMOS 2455 3.4 06:13:58 10° SSW 06:19:52 61° ESE 06:25:48 10° NE
USA 238 DEB 3.8 06:17:22 19° NW 06:22:47 70° SW 06:30:08 10° SSE
USA 238 3.8 06:17:28 19° NW 06:22:53 71° SW 06:30:15 10° SSE
Cosmos 972 Rocket 4.4 06:16:21 10° NNW 06:22:56 82° WSW 06:28:45 10° SSE
ADEOS Rocket 2.8 06:17:32 10° SSE 06:23:01 83° ENE 06:28:39 10° NNW
Cosmos 2181 Rocket 4.2 06:19:04 10° S 06:25:13 77° E 06:31:32 10° NNE
Cosmos 1606 Rocket 3.6 06:20:50 10° S 06:25:18 83° E 06:29:46 10° N
Cosmos 2263 Rocket 2.6 06:21:12 10° NNW 06:26:48 63° ENE 06:32:25 10° SE
Cosmos 2341 Rocket 3.9 06:20:43 10° NNW 06:26:59 70° W 06:33:09 10° S
SL-4 R/B 1.5 06:26:59 34° WNW 06:28:25 80° SSW 06:31:51 10° ESE
Cosmos 1726 Rocket 3.8 06:24:13 10° S 06:28:38 73° E 06:33:05 10° NNE
STARLINK-43 3.4 06:28:41 30° W 06:30:15 57° NNW 06:33:56 10° ENE
Cosmos 2278 3.7 06:27:33 10° SW 06:33:14 68° WNW 06:38:58 10° NNE
STARLINK-48 3.5 06:30:56 16° SW 06:34:00 78° SSE 06:37:54 10° ENE
USA 32 4.0 06:29:16 10° N 06:34:29 70° W 06:39:41 10° S
NOSS 7 (D) 4.0 06:34:30 29° NW 06:35:54 76° SW 06:39:13 10° SE
SL-8 Rocket 3.9 06:32:03 10° NNW 06:38:17 78° W 06:44:27 10° S
Abrixas rocket 1.9 06:37:05 30° W 06:38:25 88° S 06:41:26 10° E
STARLINK-80 3.3 06:36:21 19° WSW 06:38:56 77° NNW 06:42:45 10° ENE
CZ-4 R/B 4.5 06:36:09 10° NE 06:39:12 19° E 06:42:15 10° SE
Cosmos 1656 4.4 06:37:15 17° W 06:40:31 30° NW 06:45:19 10° NNE
Cosmos 2369 4.0 06:35:21 10° SW 06:40:51 47° NW 06:46:24 10° NNE
CZ-2C R/B 4.4 06:36:49 10° SSE 06:41:20 56° ENE 06:45:49 10° N
NOSS 2-2 (D) 3.1 06:37:59 10° SW 06:41:36 68° NW 06:45:48 10° NE
PAYLOAD B 4.4 06:37:46 10° N 06:43:10 49° WNW 06:48:32 10° SW
Cosmos 1538 Rocket 4.1 06:39:20 10° SW 06:44:36 55° WNW 06:49:51 10° NNE
SL-16 R/B 3.7 06:42:52 10° S 06:48:08 41° ESE 06:53:26 10° NE
EXPRESS MD2 2.1 06:47:14 19° W 06:49:06 77° NNW 06:51:18 10° ENE
Lacrosse 5 rocket 2.7 06:46:32 17° WNW 06:49:09 28° N 06:53:03 10° NE
H-2A R/B 2.7 06:46:17 10° N 06:50:14 80° WNW 06:54:08 10° SSW
Meteor 1-11 4.2 06:47:12 10° NNW 06:52:49 90° W 06:58:26 10° S
Meteor 1-16 Rocket 4.3 06:47:56 10° SSW 06:53:51 70° WNW 06:59:45 10° N
CZ-4B R/B 3.4 06:48:52 10° N 06:54:18 52° WNW 06:59:37 10° SW
BREEZE-M DEB (TANK) 3.6 06:54:54 13° W 06:58:31 84° N 07:12:42 10° E
Okean-O 3.6 06:56:33 10° NNE 07:00:55 53° E 07:05:15 10° S
Cosmos 1953 3.3 06:57:33 10° SW 07:00:59 26° WNW 07:04:27 10° NNW
YAOGAN 6 3.6 06:57:39 10° NNE 07:01:10 49° E 07:04:35 10° S
Cosmos 1703 3.5 06:58:56 10° NNW 07:02:47 49° W 07:06:36 10° S
Cosmos 2218 Rocket 4.1 06:57:55 10° NNW 07:04:12 61° W 07:10:27 10° S
Cosmos 1908 3.2 07:01:12 10° SSW 07:05:06 68° W 07:09:01 10° N
Cosmos 2228 3.4 07:02:55 10° SSW 07:07:05 42° WNW 07:11:18 10° N
Okean O Rocket 2.4 07:03:56 10° N 07:07:51 30° WNW 07:11:43 10° SW
SAR-Lupe-2 4.3 07:04:53 10° SSE 07:08:23 55° ENE 07:11:55 10° N
Cosmos 1980 Rocket 2.4 07:03:20 10° SW 07:08:52 51° NW 07:14:24 10° NNE
Timation 1 Rocket 4.4 07:03:47 10° NW 07:09:44 64° WSW 07:15:40 10° SSE
Cosmos 1953 Rocket 4.2 07:06:00 10° NNW 07:10:05 36° W 07:14:06 10° SSW
Cosmos 1300 4.0 07:06:47 10° SSE 07:10:25 44° E 07:14:05 10° NNE
SMAP 3.1 07:09:30 10° N 07:14:07 60° WNW 07:18:41 10° SSW
STARLINK-61 3.8 07:10:35 10° SW 07:14:32 71° SSE 07:18:30 10° ENE
NOSS 3-2 (C) 4.3 07:07:38 10° NW 07:15:00 59° WSW 07:23:11 10° SSE
STARLINK-33 4.3 07:12:28 10° SW 07:16:02 50° SE 07:19:37 10° ENE
Envisat 3.1 07:12:10 10° NNE 07:17:18 87° ESE 07:22:23 10° SSW
STARLINK-53 4.4 07:14:36 10° SW 07:18:31 53° SE 07:22:27 10° ENE
Cosmos 1697 Rocket 3.5 07:13:47 10° WSW 07:18:35 28° NW 07:23:24 10° NNE
Cosmos 1680 Rocket 3.5 07:13:57 10° SSW 07:19:16 77° WNW 07:24:38 10° NNE
NOSS 2-2 (C) 4.0 07:16:58 10° WSW 07:20:24 34° NW 07:24:24 10° NNE
Cosmos 1371 Rocket 4.0 07:15:31 10° NNW 07:20:48 76° WSW 07:26:06 10° SSE
STARLINK-66 4.1 07:17:48 10° SW 07:21:23 55° SSE 07:25:00 10° ENE
Cosmos 1726 3.2 07:20:54 10° SW 07:23:54 23° WNW 07:26:55 10° NNW
STARLINK-26 3.1 07:21:01 10° WSW 07:24:33 79° NNW 07:28:05 10° ENE
Cosmos 2058 4.0 07:20:55 10° N 07:25:00 48° ENE 07:29:05 10° SSE
CZ-2C R/B 3.4 07:22:09 10° SE 07:27:14 53° ENE 07:32:26 10° N
STARLINK-55 3.9 07:23:55 10° SW 07:27:32 62° SSE 07:31:10 10° ENE
Genesis I 3.2 07:25:20 10° NW 07:29:14 82° SW 07:33:04 10° SE
NOSS 3-4 (A) 3.6 07:24:19 10° SW 07:30:19 84° SE 07:36:46 10° NE
NOSS 3-4 (C) 3.6 07:24:26 10° SW 07:30:26 83° SE 07:36:52 10° NE
DMSP B5D2-2 4.3 07:26:39 10° SSE 07:31:52 77° ENE 07:37:09 10° NNW
ATLAS 3B R/B 2.8 07:26:48 10° NW 07:33:31 73° SW 07:40:23 10° SSE
